Starlink 6334

operational
NORAD ID: 57238 Int'l Des: 2023-094 Owner: SPXS Country: US Constellation: starlink
LEOCIRCULAR

关于 Starlink 6334

正在加载描述...

实时位置

正在加载3D地球...

即将过境

高度历史

Altitude vs Time

uPlot chart will show altitude changes over time

两行轨道根数

1 57238U 23094W 25306.44354712 .00001335 00000-0 11390-3 0 9998
2 57238 43.0044 349.1916 0001300 268.8657 91.2037 15.02534565128123
Epoch: Nov 2, 2025 • Age: 27 hours

当前状态

高度 558.6 km
速度 7.59 km/s
星下点 17.64°N, 111.5°E
发射日期 Jul 7, 2023
运行时间 2.3 years
类型 internet

技术详情

分类 Payload
质量 305.00 kg
干质量 290.00 kg
总质量 305.00 kg
长度 0.20 m
直径 2.80 m
跨度 9.00 m
形状 Box + pan
制造商 SPXS
平台类型 Starlink
阶段状态 In Orbit
所有者/国家 SPXS/US

大型星座

Loading constellations...